Regional Weather Roundup
Issued by NWS

Home | Current Version | Previous Version | Text Only | Print | Product List | Glossary Off
Versions: 1 2 3 4 5 6 7 8 9 10 11 12 13 14 15 16 17 18 19 20 21 22 23 24 25 26 27 28 29 30 31 32 33 34 35 36 37 38 39 40 41 42 43 44 45 46 47 48 49 50

000
ASUS43 KFSD 151802
RWRSD

WEATHER ROUNDUP FOR SOUTH DAKOTA
NATIONAL WEATHER SERVICE SIOUX FALLS SD
1200 PM CST SUN JAN 15 2017

NOTE: "FAIR" INDICATES FEW OR NO CLOUDS BELOW 12,000 FEET WITH NO
SIGNIFICANT WEATHER AND/OR OBSTRUCTIONS TO VISIBILITY.


SDZ001>005-009-010-012>017-151900-
NORTHWEST AND NORTH CENTRAL SOUTH DAKOTA

CITY           SKY/WX    TMP DP  RH WIND       PRES   REMARKS
BUFFALO          N/A     22  12  65 W5        29.99F WCI  16
FAITH            N/A     15  11  83 SW9       30.09F WCI   3
MOBRIDGE       CLOUDY     5  -3  69 S7        30.12F WCI  -7
$$

SDZ012>016-024>037-041>051-057-063-072>074-151900-
SOUTHWEST AND SOUTH CENTRAL SOUTH DAKOTA

CITY           SKY/WX    TMP DP  RH WIND       PRES   REMARKS
RAPID CTY ARPT CLOUDY    28  13  53 CALM      30.10F
PIERRE         CLOUDY     9   3  77 SW8       30.17F WCI  -3
CUSTER         SUNNY     38  15  39 SW8       30.07F
ELLSWORTH AFB  CLOUDY    27   7  42 CALM      30.08F
PHILIP         CLOUDY    14   7  73 W5        30.15F WCI   6
PINE RIDGE     CLOUDY    23  16  74 CALM      30.12F
SPEARFISH      FAIR      30   7  37 CALM      30.08F
WINNER         FAIR      31  20  63 CALM      30.16F
$$

SDZ004>011-016>023-039-040-151900-
NORTHEAST SOUTH DAKOTA

CITY           SKY/WX    TMP DP  RH WIND       PRES   REMARKS
ABERDEEN       CLOUDY    10   3  73 S5        30.19F WCI   2
WATERTOWN      CLOUDY    15  11  83 S13       30.15F WCI   1
BROOKINGS      CLOUDY    24  18  77 S13       30.20F WCI  12
SISSETON         N/A     29  20  69 VRB5      30.15F WCI  24
$$

SDZ017-020-022-023-036>040-048>070-151900-
SOUTHEAST SOUTH DAKOTA

CITY           SKY/WX    TMP DP  RH WIND       PRES   REMARKS
SIOUX FALLS    MOSUNNY   27  19  72 E3        30.25F
HURON          CLOUDY    19  13  77 S7        30.20F WCI  10
CHAMBERLAIN    SUNNY     23  17  75 CALM      30.19F
MITCHELL       SUNNY     28  20  71 S7        30.22F WCI  21
YANKTON        SUNNY     37  18  44 S14       30.23F
$$

ABBREVIATIONS USED IN REMARKS
   TC - TEMPERATURE IN CELSIUS
  WCI - WIND CHILL INDEX
   HX - HEAT INDEX
  VSB - VISIBILITY





USA.gov is the U.S. government's official web portal to all federal, state and local government web resources and services.